Regional Weather Roundup
Issued by NWS

Home | Current Version | Previous Version | Graphics & Text | Print | Product List | Glossary On
Versions: 1 2 3 4 5 6 7 8 9 10 11 12 13 14 15 16 17 18 19 20 21 22 23 24 25 26 27 28 29 30 31 32 33 34 35 36 37 38 39 40 41 42 43 44 45 46 47 48 49 50
000
ASUS43 KOAX 020410
RWRNE

WEATHER ROUNDUP FOR NEBRASKA
NATIONAL WEATHER SERVICE OMAHA NE
1000 PM CST SUN MAR 01 2015

NOTES: SATELLITE DATA IS BEING USED TO AUGMENT CLOUD COVER ABOVE
       12000 FEET.
       "FAIR" INDICATES FEW OR NO CLOUDS BELOW 12,000 FEET WITH NO
       SIGNIFICANT WEATHER AND/OR OBSTRUCTIONS TO VISIBILITY.

  * THESE STATIONS DO NOT REPORT WEATHER SUCH AS RAIN...SNOW OR FOG.

NEZ001>004-019>022-054>056-020500-
NEBRASKA PANHANDLE

CITY           SKY/WX    TMP DP  RH WIND       PRES   REMARKS
SCOTTSBLUFF    CLOUDY    24  11  57 SE6       30.28R WCI  17
ALLIANCE       PTCLDY    20  13  74 S7        30.27S WCI  11
CHADRON        MOCLDY    20  10  65 NE6       30.30S WCI  12
KIMBALL        MOCLDY    26  19  77 S6        30.23S WCI  19
SIDNEY         MOCLDY    22  17  81 SW7       30.28S WCI  13
$$

NEZ057>060-069>072-079>082-020500-
SOUTHWEST NEBRASKA

CITY           SKY/WX    TMP DP  RH WIND       PRES   REMARKS
NORTH PLATTE   PTCLDY    18   8  65 E3        30.37R
IMPERIAL         N/A     26  14  60 CALM      30.33F
LEXINGTON      PTCLDY    24  11  58 CALM      30.39R
MCCOOK         CLOUDY    32  12  43 S3        30.36S
OGALLALA       MOCLDY    20  15  79 CALM      30.32F
$$

NEZ005>010-023>029-035>040-094-020500-
NORTH CENTRAL NEBRASKA

CITY           SKY/WX    TMP DP  RH WIND       PRES   REMARKS
VALENTINE      PTCLDY    16   9  74 CALM      30.36S
AINSWORTH      PTCLDY    22   9  57 CALM      30.37R
BROKEN BOW     PTCLDY    22   9  57 CALM      30.38R
O`NEILL        PTCLDY    22   8  55 N5        30.40S WCI  16
ORD            CLEAR     23   7  50 CALM      30.39R
THEDFORD       PTCLDY    21   8  57 CALM      30.37R
$$

NEZ041-046>049-061>064-073>077-083>087-020500-
SOUTH CENTRAL NEBRASKA

CITY           SKY/WX    TMP DP  RH WIND       PRES   REMARKS
GRAND ISLAND   FAIR      25  12  58 CALM      30.42R
AURORA         PTCLDY    24  11  58 NE7       30.42R WCI  16
HASTINGS       PTCLDY    23  13  65 CALM      30.41R
HEBRON         MOCLDY    27  19  73 CALM      30.44R
HOLDREGE       MOCLDY    26  10  51 CALM      30.39R
KEARNEY *      PTCLDY    25   9  50 CALM      30.40R
YORK           PTCLDY    23  14  68 N7        30.43R WCI  15
$$

NEZ011>018-030>034-042>045-020500-
NORTHEAST NEBRASKA

CITY           SKY/WX    TMP DP  RH WIND       PRES   REMARKS
NORFOLK        PTCLDY    25   8  48 CALM      30.43R
ALBION         PTCLDY    19   8  61 CALM      30.42R
BLAIR          CLEAR     31  11  43 N8        30.42R WCI  24
COLUMBUS *     CLEAR     21   7  53 NW5       30.45R WCI  15
FREMONT        PTCLDY    25  16  66 CALM      30.44R
TEKAMAH        PTCLDY    23  14  68 N9        30.45R WCI  13
WAYNE          PTCLDY    18   8  62 CALM      30.44R
$$

NEZ050>053-065>068-078-088>093-020500-
SOUTHEAST NEBRASKA

CITY           SKY/WX    TMP DP  RH WIND       PRES   REMARKS
LINCOLN        PTCLDY    20  14  77 N6        30.45R WCI  12
OMAHA EPPLEY   PTCLDY    25  17  72 CALM      30.44R
BEATRICE       MOCLDY    26  19  74 CALM      30.43R
FALLS CITY     CLOUDY    28  20  71 S3        30.44R
NEBRASKA CITY  MOCLDY    30  12  47 SW3       30.43R
PLATTSMOUTH    PTCLDY    32  13  46 CALM      30.43R
$$

NEZ044-045-051>053-067-020500-
OMAHA AREA

CITY           SKY/WX    TMP DP  RH WIND       PRES   REMARKS
OMAHA EPPLEY   PTCLDY    25  17  72 CALM      30.44R
BLAIR          CLEAR     31  11  43 N8        30.42R WCI  24
FREMONT        PTCLDY    25  16  66 CALM      30.44R
MILLARD        CLEAR     25  17  73 CALM      30.45R
OFFUTT AFB     CLEAR     23  18  81 S2        30.44R
PLATTSMOUTH    PTCLDY    32  13  46 CALM      30.43R
WAHOO          FAIR      23  13  66 NW3       30.45R
$$


USA.gov is the U.S. government's official web portal to all federal, state and local government web resources and services.